User: anonymous   Login
Location: Caltech
(34.1382°N, 118.1253°W)
Time: 23:28:56
(UTC-07:00)
Language:

OAO 2 Rocket - Orbit

View from above orbital plane
View from above orbital plane
View from above satellite
View from above satellite

Ground track
Ground track

The orbit data is extracted from the following two-line orbital elements,

1  3598U 68110B   16206.92746758 +.00000064 +00000-0 +19523-4 0  9998
2  3598 034.9943 025.1013 0048564 093.3407 267.2843 14.54233871497903
Epoch (UTC): 24 July 2016 22:15:33
Eccentricity: 0.0048564
inclination: 34.9943°
perigee height: 677 km
apogee height: 746 km
right ascension of ascending node: 25.1013°
argument of perigee: 93.3407°
revolutions per day: 14.54233871
mean anomaly at epoch: 267.2843°
orbit number at epoch: 49790

The dashed part of the orbit path shows where the satellite is in the earth's shadow,  

DLR